Home > Weather > Kallithea > Past weeks

Flag for Greece Past Weather in Kallithea, Greece — Yesterday and Last 2 Weeks

Now
86 °F

Passing clouds.


Feels Like: 83 °F
Forecast: 75 / 86 °F
Wind: 14 mph from North

Location: Elefsis Airport

Current Time: Aug 27, 2016 at 4:36:01 PM

Latest Report: Aug 27, 2016 at 3:50 PM


Visibility: N/A

Pressure: 30.01 "Hg

Humidity: 24%

Dew Point: 45 °F

Location of KallitheaLocation

Past Weather in Kallithea — Graph

°F

Kallithea Temperature Yesterday

Maximum temperature yesterday: 88 °F (at 1:50 PM)
Minimum temperature yesterday: 75 °F (at 6:20 AM)
Average temperature yesterday: 82 °F

High & Low Weather Summary for the Past Weeks

 TemperatureHumidityPressure
High97 °F (Aug 12, 4:20 PM)70% (Aug 19, 11:50 PM)30.12 "Hg (Aug 19, 11:50 PM)
Low68 °F (Aug 14, 2:50 AM)14% (Aug 16, 4:50 PM)29.74 "Hg (Aug 18, 3:50 PM)
Average82 °F38%29.91 "Hg
* Reported Aug 12 2:20 PM — Aug 27 2:50 PM, Kallithea, Weather by CustomWeather, © 2016

Note: Actual official high and low records may vary slightly from our data, if they occured in-between our weather recording intervals... More about our weather records

Advertising

Kallithea Weather History for the Previous 24 Hours

Scroll right to see more
 ConditionsComfort  
Time TempWeatherWind HumidityBarometerVisibility
2:50 PM
Sat, Aug 27
86 °FPassing clouds.15 mph25%30.01 "HgN/A
2:20 PM86 °FPassing clouds.17 mph25%30.04 "HgN/A
1:50 PM86 °FPassing clouds.15 mph24%30.01 "HgN/A
1:20 PM84 °FPassing clouds.17 mph23%30.04 "HgN/A
12:50 PM86 °FPassing clouds.17 mph24%30.04 "HgN/A
12:20 PM86 °FPassing clouds.14 mph24%30.04 "HgN/A
11:50 AM84 °FPassing clouds.13 mph25%30.07 "HgN/A
11:20 AM82 °FPassing clouds.13 mph28%30.07 "HgN/A
10:50 AM82 °FPassing clouds.17 mph30%30.07 "HgN/A
10:20 AM81 °FPassing clouds.15 mph32%30.07 "HgN/A
9:50 AM81 °FPassing clouds.12 mph34%30.04 "HgN/A
8:50 AM79 °FPassing clouds.12 mph34%30.04 "HgN/A
8:20 AM77 °FSunny.8 mph39%30.04 "Hg10 mi
7:50 AM75 °FClear.9 mph44%30.04 "Hg10 mi
7:20 AM73 °FPassing clouds.9 mph47%30.04 "HgN/A
6:50 AM73 °FPassing clouds.7 mph47%30.04 "HgN/A
6:20 AM75 °FPassing clouds.9 mph44%30.04 "HgN/A
5:50 AM75 °FPassing clouds.9 mph47%30.04 "HgN/A
5:20 AM73 °FPassing clouds.9 mph50%30.04 "HgN/A
4:50 AM73 °FPassing clouds.9 mph50%30.04 "HgN/A
4:20 AM75 °FPassing clouds.9 mph44%30.04 "HgN/A
3:50 AM73 °FPassing clouds.9 mph47%30.04 "HgN/A
3:20 AM75 °FPassing clouds.9 mph44%30.04 "HgN/A
2:50 AM75 °FPassing clouds.12 mph41%30.04 "HgN/A
1:50 AM75 °FPassing clouds.12 mph39%30.04 "HgN/A
1:20 AM77 °FPassing clouds.9 mph36%30.04 "HgN/A
12:50 AM77 °FPassing clouds.9 mph36%30.04 "HgN/A
12:20 AM77 °FClear.7 mph34%30.04 "Hg10 mi
11:50 PM
Fri, Aug 26
79 °FClear.7 mph32%30.01 "Hg10 mi
11:20 PM81 °FPassing clouds.7 mph26%29.98 "HgN/A
10:50 PM81 °FClear.7 mph26%29.98 "Hg10 mi
10:20 PM81 °FPassing clouds.7 mph26%29.98 "HgN/A
9:50 PM81 °FPassing clouds.7 mph26%29.98 "HgN/A
9:20 PM79 °FPassing clouds.9 mph28%29.98 "HgN/A
8:50 PM81 °FPassing clouds.9 mph26%29.98 "HgN/A
8:20 PM81 °FScattered clouds.12 mph26%29.98 "HgN/A
7:50 PM81 °FScattered clouds.14 mph26%29.98 "HgN/A
7:20 PM82 °FScattered clouds.16 mph25%29.98 "HgN/A
6:50 PM84 °FPassing clouds.13 mph25%29.98 "HgN/A
6:20 PM84 °FPassing clouds.12 mph25%29.98 "HgN/A
5:50 PM86 °FPassing clouds.14 mph24%29.98 "HgN/A
5:20 PM86 °FPassing clouds.17 mph22%29.98 "HgN/A
4:50 PM88 °FPassing clouds.15 mph21%29.95 "HgN/A
4:20 PM88 °FPassing clouds.15 mph21%29.95 "HgN/A
Weather by CustomWeather, © 2016

See weather overviewHow to use our weather pages